Regional Weather Roundup
Issued by NWS

Home | Current Version | Previous Version | Text Only | Print | Product List | Glossary On
Versions: 1 2 3 4 5 6 7 8 9 10 11 12 13 14 15 16 17 18 19 20 21 22 23 24 25 26 27 28 29 30 31 32 33 34 35 36 37 38 39 40 41 42 43 44 45 46 47 48 49 50
789
ASUS44 KJAN 220003
RWRMS

MISSISSIPPI HOURLY WEATHER ROUNDUP
NATIONAL WEATHER SERVICE JACKSON MS
600 PM CST SUN DEC 21 2014

NOTE: "FAIR: INDICATES FEW OR NO CLOUDS BELOW 12,000 FEET WITH NO
SIGNIFICANT WEATHER AND/OR OBSTRUCTIONS TO VISIBILITY.

MSZ001>002-007>008-010>013-018>021-025>028-034>036-220100-
NORTHWEST MISSISSIPPI

CITY           SKY/WX    TMP DP  RH WIND       PRES   REMARKS
CLARKSDALE     FAIR      50  37  62 CALM      30.01S
CLEVELAND      FAIR      47  41  79 CALM      29.99F
GREENWOOD      CLEAR     49  42  77 CALM      30.00S
6HR MIN TEMP:  49; 6HR MAX TEMP:  61;

GREENVILLE     CLEAR     48  41  76 E3        29.98F
6HR MIN TEMP:  47; 6HR MAX TEMP:  58;

GRENADA        FAIR      48  43  81 CALM      30.01S
OLIVE BRANCH   PTCLDY    45  34  65 CALM      30.02S
OXFORD         FAIR      45  36  70 CALM      30.04R
TUNICA         CLEAR     46  36  66 E3        30.01S
$$

MSZ003>006-009-014>017-022>024-029>033-037>039-220100-
NORTHEAST MISSISSIPPI

CITY           SKY/WX    TMP DP  RH WIND       PRES   REMARKS
COLUMBUS AFB   CLOUDY    46  42  86 E1        30.04F
6HR MIN TEMP:  46; 6HR MAX TEMP:  52;

CORINTH        FAIR      46  39  76 SE6       30.03F
GOLDN TRIANGLE CLOUDY    48  43  81 CALM      30.04S
STARKVILLE     CLOUDY    48  45  87 CALM      30.05R
TUPELO         CLEAR     48  39  71 SE3       30.04S
6HR MIN TEMP:  48; 6HR MAX TEMP:  56;

$$

MSZ040-058-220100-
CENTRAL MISSISSIPPI

CITY           SKY/WX    TMP DP  RH WIND       PRES   REMARKS
JACKSON INTL   PTCLDY    51  46  83 E5        30.00F
6HR MIN TEMP:  51; 6HR MAX TEMP:  61;

JACKSON HAWKNS CLEAR     52  46  80 SE6       30.00S
6HR MIN TEMP:  52; 6HR MAX TEMP:  61;

MERIDIAN KEY   CLOUDY    49  46  90 E3        30.04F
6HR MIN TEMP:  49; 6HR MAX TEMP:  54;

MERIDIAN NAS   CLOUDY    48  46  93 NE3       30.05S FOG
6HR MIN TEMP:  48; 6HR MAX TEMP:  49;

RAYMOND        FAIR      50  45  81 MISG      30.00R
VICKSBURG      CLEAR     51  46  83 E3        29.99R
6HR MIN TEMP:  51; 6HR MAX TEMP:  62;

$$

MSZ059>079-220100-
SOUTH MISSISSIPPI

CITY           SKY/WX    TMP DP  RH WIND       PRES   REMARKS
HATTIESBURG    CLOUDY    54  50  86 NE3       30.04R
6HR MIN TEMP:  51; 6HR MAX TEMP:  56;

MCCOMB         CLOUDY    56  50  80 SE3       29.99S
6HR MIN TEMP:  54; 6HR MAX TEMP:  59;

NATCHEZ        CLEAR     54  46  76 CALM      29.99S
6HR MIN TEMP:  54; 6HR MAX TEMP:  63;

PINE BELT      CLOUDY    52  46  82 CALM      30.04R
6HR MIN TEMP:  48; 6HR MAX TEMP:  54;

$$

MSZ080>082-220100-
COASTAL MISSISSIPPI

CITY           SKY/WX    TMP DP  RH WIND       PRES   REMARKS
BAY ST LOUIS   PTCLDY    52  48  87 CALM      30.00S
BILOXI         CLOUDY    57  55  91 NE8       29.99F
6HR MIN TEMP:  57; 6HR MAX TEMP:  59;

PASCAGOULA     CLOUDY    57  53  86 N6        30.01S
6HR MIN TEMP:  57; 6HR MAX TEMP:  58;

GULFPORT       CLOUDY    58  53  84 NE7       29.99S
6HR MIN TEMP:  57; 6HR MAX TEMP:  60;

$$



USA.gov is the U.S. government's official web portal to all federal, state and local government web resources and services.